GEFSCGP_prec_meanprecacc_132.txt.gz
Total_Precipitation_Accumulation
0.22 0.50 0.68 0.61 0.56 0.58 0.54 0.45 0.36 0.32 0.35 0.33 0.28 0.22 0.22 0.23 0.22 0.19 0.16 0.16 0.14 0.13 0.12 0.11 0.10 0.15 0.21 0.30 0.39 0.56 0.90 1.33 1.53 1.44 1.40 1.49 1.61 1.61 1.52 1.51 1.49 1.54 1.54 1.53
0.24 0.32 0.27 0.29 0.36 0.44 0.50 0.48 0.42 0.34 0.26 0.23 0.20 0.16 0.15 0.17 0.19 0.17 0.16 0.16 0.16 0.14 0.11 0.08 0.09 0.12 0.18 0.33 0.48 0.61 0.86 1.30 1.53 1.64 1.75 1.97 2.18 2.10 1.97 1.96 1.92 2.00 2.02 2.17
0.17 0.17 0.15 0.24 0.37 0.44 0.46 0.44 0.41 0.35 0.23 0.17 0.13 0.11 0.11 0.13 0.14 0.13 0.14 0.16 0.15 0.13 0.12 0.11 0.11 0.15 0.19 0.29 0.40 0.55 0.71 1.01 1.34 1.60 1.89 2.21 2.46 2.46 2.35 2.19 2.16 2.22 2.29 2.44
0.17 0.19 0.18 0.20 0.26 0.30 0.39 0.29 0.24 0.21 0.22 0.21 0.13 0.15 0.13 0.16 0.16 0.15 0.15 0.16 0.17 0.16 0.15 0.17 0.16 0.17 0.19 0.25 0.32 0.44 0.62 0.88 1.13 1.38 1.80 2.25 2.57 2.69 2.62 2.51 2.46 2.43 2.45 2.50
0.13 0.14 0.14 0.15 0.18 0.21 0.27 0.22 0.18 0.17 0.16 0.15 0.12 0.13 0.15 0.16 0.19 0.18 0.18 0.18 0.17 0.16 0.18 0.21 0.21 0.23 0.25 0.23 0.28 0.38 0.55 0.79 1.04 1.27 1.63 2.06 2.36 2.60 2.77 2.60 2.47 2.49 2.52 2.55
0.14 0.10 0.10 0.13 0.17 0.18 0.23 0.20 0.15 0.13 0.15 0.14 0.08 0.14 0.22 0.20 0.19 0.18 0.16 0.16 0.18 0.20 0.24 0.28 0.36 0.40 0.39 0.33 0.36 0.45 0.54 0.68 0.85 1.00 1.23 1.48 1.84 2.14 2.50 2.50 2.42 2.54 2.53 2.45
0.13 0.11 0.10 0.11 0.13 0.13 0.17 0.22 0.25 0.23 0.22 0.16 0.10 0.19 0.31 0.27 0.20 0.19 0.20 0.20 0.21 0.23 0.27 0.35 0.48 0.52 0.53 0.47 0.43 0.45 0.55 0.61 0.67 0.78 0.91 1.07 1.35 1.55 1.94 2.26 2.24 2.16 2.22 2.27
0.14 0.13 0.08 0.08 0.09 0.12 0.13 0.20 0.31 0.36 0.32 0.25 0.22 0.36 0.43 0.32 0.23 0.21 0.21 0.22 0.25 0.29 0.35 0.51 0.66 0.68 0.68 0.60 0.53 0.52 0.60 0.63 0.65 0.70 0.73 0.83 1.00 1.13 1.31 1.55 1.67 1.71 1.77 1.99
0.16 0.12 0.09 0.09 0.08 0.10 0.13 0.15 0.19 0.28 0.27 0.27 0.34 0.48 0.43 0.27 0.26 0.28 0.28 0.29 0.38 0.48 0.55 0.68 0.81 0.83 0.75 0.69 0.61 0.60 0.64 0.73 0.73 0.72 0.74 0.84 0.90 0.94 1.06 1.10 1.25 1.45 1.48 1.55
0.19 0.13 0.08 0.08 0.08 0.08 0.10 0.15 0.22 0.33 0.40 0.39 0.38 0.47 0.48 0.37 0.38 0.37 0.42 0.44 0.55 0.66 0.74 0.83 0.95 0.97 0.83 0.71 0.61 0.59 0.61 0.73 0.92 1.04 0.99 0.93 1.01 1.08 1.30 1.34 1.19 1.18 1.37 1.44
0.28 0.23 0.10 0.08 0.10 0.13 0.17 0.24 0.30 0.38 0.41 0.56 0.64 0.66 0.59 0.57 0.58 0.59 0.62 0.65 0.74 0.86 0.87 0.84 0.91 0.98 0.87 0.68 0.61 0.56 0.56 0.67 0.83 0.87 0.93 0.92 0.97 1.07 1.35 1.57 1.51 1.33 1.34 1.38
0.29 0.38 0.23 0.13 0.16 0.20 0.26 0.37 0.51 0.71 0.68 0.64 0.78 0.81 0.65 0.58 0.63 0.64 0.64 0.63 0.67 0.79 0.80 0.81 0.83 0.80 0.70 0.56 0.49 0.47 0.48 0.59 0.71 0.70 0.77 0.84 0.86 0.95 1.07 1.19 1.21 1.15 1.08 1.06
0.38 0.53 0.46 0.33 0.36 0.35 0.43 0.46 0.52 0.64 0.73 0.74 0.83 0.86 0.62 0.54 0.49 0.52 0.55 0.58 0.60 0.60 0.60 0.59 0.60 0.57 0.55 0.53 0.50 0.45 0.47 0.54 0.60 0.64 0.69 0.77 0.80 0.83 0.84 0.85 0.78 0.82 0.85 0.93
0.36 0.46 0.54 0.56 0.59 0.61 0.61 0.51 0.45 0.60 0.79 0.76 0.75 0.74 0.61 0.53 0.49 0.52 0.54 0.54 0.57 0.50 0.44 0.44 0.46 0.47 0.49 0.49 0.49 0.46 0.43 0.51 0.60 0.74 0.81 0.86 0.87 0.87 0.87 0.85 0.81 0.80 0.83 0.89
0.25 0.29 0.28 0.27 0.29 0.41 0.46 0.39 0.38 0.45 0.52 0.67 0.66 0.65 0.52 0.49 0.53 0.57 0.54 0.49 0.45 0.39 0.34 0.35 0.36 0.38 0.37 0.38 0.40 0.40 0.38 0.44 0.51 0.65 0.77 0.83 0.86 0.87 0.84 0.78 0.75 0.79 0.76 0.76
0.17 0.22 0.20 0.17 0.19 0.27 0.34 0.35 0.36 0.36 0.40 0.50 0.57 0.56 0.43 0.39 0.38 0.39 0.36 0.31 0.29 0.29 0.26 0.24 0.25 0.27 0.26 0.24 0.24 0.26 0.33 0.41 0.47 0.55 0.65 0.81 0.87 0.80 0.76 0.69 0.68 0.71 0.70 0.67
0.14 0.25 0.33 0.26 0.22 0.24 0.49 0.51 0.51 0.52 0.46 0.45 0.40 0.32 0.21 0.20 0.23 0.26 0.26 0.26 0.30 0.26 0.20 0.19 0.19 0.20 0.21 0.22 0.25 0.28 0.34 0.44 0.44 0.48 0.60 0.80 0.81 0.70 0.65 0.71 0.75 0.72 0.70 0.70
0.12 0.25 0.34 0.28 0.31 0.59 0.83 0.61 0.58 0.53 0.32 0.18 0.13 0.12 0.12 0.17 0.17 0.15 0.16 0.19 0.22 0.19 0.15 0.13 0.13 0.13 0.14 0.17 0.21 0.24 0.28 0.32 0.35 0.41 0.50 0.65 0.68 0.66 0.69 0.70 0.68 0.63 0.59 0.58
0.12 0.25 0.35 0.31 0.37 0.61 0.64 0.41 0.33 0.33 0.21 0.07 0.06 0.08 0.10 0.12 0.11 0.09 0.09 0.10 0.11 0.11 0.07 0.06 0.06 0.05 0.05 0.06 0.07 0.11 0.13 0.16 0.21 0.28 0.37 0.46 0.50 0.54 0.57 0.56 0.56 0.52 0.49 0.51
0.26 0.32 0.45 0.46 0.57 0.59 0.32 0.17 0.15 0.22 0.26 0.06 0.03 0.04 0.04 0.06 0.09 0.06 0.04 0.05 0.06 0.05 0.04 0.03 0.02 0.01 0.01 0.01 0.02 0.04 0.06 0.10 0.14 0.20 0.27 0.34 0.37 0.41 0.43 0.48 0.51 0.51 0.48 0.46
0.23 0.31 0.40 0.48 0.68 0.55 0.21 0.11 0.11 0.21 0.27 0.08 0.03 0.02 0.02 0.02 0.04 0.02 0.03 0.04 0.04 0.03 0.03 0.01 0.01 0.00 0.00 0.01 0.01 0.02 0.05 0.07 0.08 0.11 0.16 0.23 0.30 0.38 0.45 0.51 0.52 0.55 0.52 0.47
0.25 0.28 0.30 0.41 0.55 0.50 0.20 0.15 0.18 0.17 0.08 0.03 0.02 0.01 0.01 0.01 0.01 0.01 0.02 0.02 0.03 0.03 0.02 0.01 0.01 0.00 0.00 0.01 0.01 0.01 0.02 0.03 0.04 0.06 0.11 0.18 0.26 0.33 0.42 0.51 0.54 0.54 0.54 0.53
0.28 0.30 0.32 0.44 0.57 0.38 0.23 0.21 0.19 0.12 0.06 0.02 0.01 0.01 0.00 0.00 0.00 0.00 0.01 0.02 0.02 0.03 0.02 0.01 0.01 0.01 0.00 0.01 0.01 0.00 0.00 0.00 0.01 0.03 0.06 0.11 0.15 0.19 0.25 0.33 0.41 0.47 0.51 0.53
0.15 0.17 0.23 0.32 0.32 0.20 0.18 0.17 0.12 0.07 0.04 0.02 0.01 0.00 0.00 0.00 0.00 0.00 0.01 0.01 0.02 0.02 0.02 0.01 0.01 0.01 0.01 0.00 0.00 0.00 0.00 0.00 0.00 0.01 0.03 0.05 0.06 0.07 0.10 0.20 0.28 0.35 0.42 0.48
0.11 0.13 0.18 0.25 0.25 0.15 0.11 0.10 0.07 0.04 0.02 0.01 0.01 0.00 0.00 0.00 0.00 0.00 0.00 0.00 0.01 0.01 0.01 0.01 0.01 0.01 0.00 0.00 0.00 0.00 0.01 0.01 0.01 0.01 0.01 0.02 0.04 0.06 0.08 0.14 0.22 0.27 0.34 0.37
0.07 0.11 0.17 0.24 0.23 0.17 0.08 0.07 0.05 0.03 0.02 0.02 0.01 0.00 0.00 0.00 0.00 0.00 0.00 0.00 0.01 0.01 0.01 0.01 0.01 0.01 0.00 0.00 0.00 0.01 0.03 0.02 0.04 0.06 0.03 0.02 0.03 0.06 0.08 0.11 0.13 0.13 0.16 0.16

GEFSCGP_prec_meanprecacc_138.txt.gz
Total_Precipitation_Accumulation
0.23 0.52 0.71 0.63 0.57 0.58 0.55 0.46 0.37 0.33 0.36 0.35 0.30 0.24 0.23 0.24 0.23 0.19 0.17 0.17 0.15 0.14 0.13 0.11 0.11 0.16 0.22 0.31 0.40 0.56 0.91 1.35 1.54 1.45 1.41 1.50 1.62 1.62 1.53 1.51 1.49 1.55 1.54 1.53
0.25 0.34 0.28 0.30 0.37 0.46 0.50 0.49 0.43 0.35 0.27 0.24 0.22 0.17 0.16 0.18 0.19 0.18 0.16 0.17 0.16 0.14 0.11 0.08 0.09 0.13 0.18 0.34 0.49 0.61 0.87 1.31 1.53 1.65 1.75 1.97 2.18 2.10 1.97 1.96 1.92 2.00 2.02 2.17
0.17 0.18 0.16 0.25 0.39 0.45 0.47 0.45 0.42 0.36 0.24 0.18 0.14 0.12 0.11 0.14 0.15 0.14 0.15 0.17 0.16 0.14 0.13 0.12 0.11 0.15 0.20 0.29 0.41 0.56 0.73 1.02 1.35 1.61 1.89 2.21 2.46 2.46 2.35 2.19 2.16 2.22 2.29 2.44
0.18 0.20 0.19 0.22 0.27 0.31 0.40 0.30 0.25 0.22 0.23 0.22 0.15 0.15 0.14 0.17 0.17 0.16 0.16 0.17 0.18 0.17 0.16 0.18 0.17 0.17 0.20 0.25 0.33 0.46 0.64 0.89 1.14 1.38 1.80 2.25 2.57 2.69 2.62 2.51 2.46 2.43 2.45 2.50
0.14 0.15 0.16 0.17 0.19 0.22 0.28 0.23 0.19 0.18 0.17 0.16 0.12 0.13 0.15 0.16 0.19 0.19 0.19 0.19 0.18 0.17 0.18 0.21 0.21 0.23 0.25 0.25 0.30 0.42 0.56 0.80 1.04 1.27 1.63 2.06 2.36 2.60 2.77 2.60 2.47 2.49 2.52 2.55
0.15 0.11 0.11 0.14 0.18 0.19 0.24 0.21 0.16 0.14 0.15 0.14 0.08 0.14 0.22 0.20 0.19 0.18 0.17 0.17 0.19 0.20 0.25 0.28 0.36 0.41 0.40 0.34 0.37 0.47 0.54 0.69 0.85 1.00 1.23 1.48 1.84 2.14 2.50 2.50 2.42 2.54 2.53 2.46
0.14 0.11 0.11 0.11 0.13 0.14 0.18 0.22 0.25 0.23 0.22 0.16 0.10 0.20 0.31 0.27 0.20 0.19 0.20 0.20 0.22 0.23 0.27 0.35 0.48 0.52 0.53 0.47 0.44 0.45 0.55 0.61 0.67 0.78 0.91 1.07 1.35 1.55 1.94 2.26 2.24 2.17 2.22 2.28
0.14 0.13 0.09 0.08 0.10 0.12 0.13 0.20 0.31 0.36 0.32 0.25 0.22 0.37 0.43 0.32 0.24 0.22 0.21 0.23 0.26 0.29 0.36 0.51 0.66 0.69 0.68 0.60 0.53 0.52 0.60 0.63 0.65 0.70 0.73 0.83 1.00 1.13 1.31 1.55 1.67 1.71 1.77 1.99
0.16 0.12 0.10 0.09 0.08 0.10 0.13 0.15 0.19 0.28 0.27 0.27 0.34 0.48 0.44 0.27 0.26 0.28 0.29 0.30 0.40 0.48 0.55 0.68 0.82 0.84 0.76 0.69 0.61 0.60 0.64 0.73 0.73 0.72 0.74 0.84 0.90 0.94 1.06 1.10 1.25 1.45 1.49 1.55
0.19 0.14 0.08 0.08 0.08 0.09 0.10 0.15 0.22 0.33 0.40 0.39 0.38 0.48 0.48 0.37 0.38 0.37 0.42 0.44 0.55 0.67 0.74 0.83 0.95 0.97 0.83 0.71 0.61 0.59 0.61 0.73 0.92 1.04 0.99 0.93 1.01 1.08 1.30 1.34 1.19 1.18 1.37 1.44
0.28 0.23 0.10 0.08 0.10 0.13 0.17 0.25 0.31 0.38 0.41 0.56 0.65 0.66 0.59 0.57 0.58 0.59 0.62 0.65 0.74 0.86 0.87 0.84 0.91 0.98 0.87 0.68 0.61 0.56 0.56 0.67 0.83 0.87 0.93 0.92 0.97 1.07 1.35 1.57 1.51 1.33 1.34 1.38
0.29 0.38 0.23 0.13 0.16 0.20 0.26 0.37 0.52 0.71 0.68 0.64 0.78 0.81 0.65 0.58 0.63 0.64 0.64 0.63 0.67 0.79 0.80 0.81 0.83 0.80 0.70 0.56 0.49 0.47 0.48 0.59 0.71 0.71 0.77 0.84 0.86 0.95 1.07 1.19 1.21 1.15 1.08 1.06
0.38 0.53 0.46 0.33 0.36 0.35 0.43 0.46 0.52 0.65 0.73 0.74 0.83 0.86 0.62 0.54 0.49 0.52 0.55 0.58 0.60 0.60 0.60 0.60 0.60 0.57 0.55 0.53 0.50 0.45 0.47 0.54 0.60 0.64 0.70 0.77 0.80 0.83 0.84 0.85 0.78 0.82 0.85 0.93
0.36 0.46 0.54 0.56 0.59 0.61 0.61 0.51 0.45 0.61 0.80 0.76 0.76 0.74 0.61 0.53 0.49 0.52 0.54 0.54 0.57 0.51 0.44 0.44 0.46 0.47 0.49 0.49 0.49 0.46 0.43 0.51 0.60 0.74 0.81 0.86 0.87 0.87 0.87 0.85 0.81 0.80 0.83 0.89
0.25 0.29 0.28 0.27 0.29 0.41 0.46 0.39 0.38 0.46 0.52 0.67 0.66 0.65 0.52 0.49 0.53 0.57 0.54 0.49 0.45 0.39 0.35 0.35 0.36 0.38 0.37 0.38 0.40 0.40 0.38 0.44 0.51 0.65 0.78 0.83 0.86 0.87 0.84 0.78 0.75 0.79 0.76 0.76
0.17 0.22 0.20 0.17 0.19 0.27 0.34 0.35 0.36 0.36 0.40 0.50 0.57 0.56 0.43 0.40 0.38 0.39 0.36 0.31 0.29 0.29 0.26 0.24 0.25 0.27 0.26 0.25 0.25 0.26 0.33 0.41 0.47 0.55 0.65 0.81 0.87 0.80 0.76 0.69 0.68 0.71 0.70 0.67
0.14 0.25 0.33 0.26 0.22 0.24 0.49 0.51 0.51 0.52 0.46 0.45 0.40 0.32 0.21 0.20 0.23 0.26 0.26 0.26 0.30 0.26 0.20 0.19 0.19 0.20 0.22 0.23 0.25 0.28 0.35 0.44 0.44 0.48 0.60 0.80 0.81 0.70 0.65 0.71 0.75 0.72 0.70 0.70
0.12 0.25 0.34 0.28 0.31 0.59 0.83 0.61 0.58 0.53 0.32 0.18 0.13 0.12 0.12 0.17 0.17 0.15 0.16 0.19 0.22 0.19 0.15 0.13 0.13 0.13 0.14 0.17 0.21 0.24 0.28 0.32 0.35 0.41 0.50 0.65 0.68 0.66 0.70 0.70 0.68 0.63 0.59 0.58
0.12 0.25 0.35 0.31 0.37 0.61 0.64 0.41 0.33 0.33 0.21 0.07 0.06 0.08 0.10 0.12 0.11 0.09 0.09 0.10 0.11 0.11 0.07 0.06 0.06 0.06 0.05 0.06 0.07 0.11 0.13 0.16 0.21 0.28 0.37 0.46 0.50 0.54 0.57 0.56 0.56 0.52 0.49 0.51
0.26 0.32 0.45 0.46 0.58 0.59 0.32 0.17 0.15 0.22 0.26 0.06 0.03 0.04 0.04 0.06 0.09 0.06 0.04 0.05 0.06 0.05 0.04 0.03 0.02 0.01 0.01 0.01 0.02 0.04 0.07 0.10 0.14 0.20 0.27 0.34 0.37 0.41 0.43 0.49 0.51 0.51 0.48 0.46
0.23 0.31 0.40 0.48 0.68 0.55 0.21 0.11 0.11 0.21 0.27 0.08 0.03 0.02 0.02 0.02 0.04 0.02 0.03 0.04 0.04 0.03 0.03 0.01 0.01 0.00 0.00 0.01 0.01 0.02 0.05 0.08 0.08 0.11 0.16 0.23 0.30 0.38 0.45 0.51 0.52 0.55 0.52 0.47
0.25 0.28 0.30 0.41 0.55 0.51 0.20 0.15 0.18 0.18 0.08 0.03 0.02 0.01 0.01 0.01 0.01 0.01 0.02 0.02 0.03 0.03 0.02 0.01 0.01 0.00 0.00 0.01 0.01 0.01 0.02 0.03 0.04 0.07 0.11 0.18 0.26 0.33 0.42 0.51 0.54 0.54 0.54 0.53
0.28 0.30 0.33 0.44 0.58 0.38 0.23 0.21 0.19 0.12 0.06 0.02 0.01 0.01 0.00 0.00 0.00 0.00 0.01 0.02 0.02 0.03 0.02 0.01 0.01 0.01 0.00 0.01 0.01 0.00 0.00 0.00 0.01 0.03 0.06 0.11 0.15 0.20 0.25 0.33 0.41 0.47 0.51 0.53
0.15 0.18 0.23 0.32 0.32 0.20 0.18 0.17 0.12 0.07 0.04 0.02 0.01 0.00 0.00 0.00 0.00 0.00 0.01 0.01 0.02 0.02 0.02 0.01 0.01 0.01 0.01 0.00 0.00 0.00 0.00 0.00 0.01 0.02 0.03 0.05 0.06 0.07 0.10 0.20 0.28 0.35 0.42 0.48
0.11 0.13 0.18 0.25 0.25 0.15 0.11 0.10 0.07 0.04 0.02 0.01 0.01 0.01 0.00 0.00 0.00 0.00 0.00 0.00 0.01 0.01 0.01 0.01 0.01 0.01 0.00 0.00 0.00 0.00 0.01 0.01 0.01 0.01 0.01 0.02 0.04 0.06 0.08 0.14 0.22 0.27 0.34 0.37
0.07 0.11 0.17 0.24 0.23 0.18 0.09 0.07 0.05 0.03 0.02 0.02 0.01 0.00 0.00 0.00 0.00 0.00 0.00 0.00 0.01 0.01 0.01 0.01 0.01 0.01 0.00 0.00 0.00 0.01 0.03 0.02 0.04 0.06 0.03 0.02 0.03 0.06 0.08 0.11 0.13 0.13 0.16 0.17

GEFSCGP_prec_meanprecacc_144.txt.gz
Total_Precipitation_Accumulation
0.23 0.53 0.72 0.64 0.58 0.59 0.56 0.46 0.38 0.34 0.37 0.36 0.32 0.25 0.24 0.25 0.24 0.20 0.17 0.17 0.16 0.14 0.14 0.12 0.12 0.17 0.22 0.31 0.41 0.59 0.92 1.37 1.57 1.48 1.42 1.51 1.62 1.62 1.53 1.51 1.49 1.55 1.54 1.54
0.25 0.35 0.29 0.31 0.38 0.46 0.51 0.50 0.44 0.36 0.28 0.25 0.23 0.18 0.17 0.19 0.20 0.19 0.17 0.17 0.17 0.15 0.12 0.08 0.10 0.13 0.19 0.34 0.50 0.63 0.88 1.32 1.54 1.66 1.77 1.98 2.19 2.11 1.98 1.97 1.92 2.00 2.02 2.18
0.18 0.19 0.16 0.26 0.40 0.46 0.47 0.46 0.43 0.37 0.25 0.19 0.15 0.13 0.12 0.14 0.15 0.14 0.15 0.17 0.16 0.14 0.13 0.13 0.12 0.16 0.20 0.29 0.41 0.57 0.73 1.02 1.36 1.61 1.90 2.21 2.46 2.46 2.35 2.19 2.16 2.23 2.29 2.45
0.19 0.20 0.19 0.22 0.28 0.32 0.41 0.31 0.26 0.23 0.24 0.23 0.15 0.17 0.14 0.17 0.17 0.16 0.16 0.18 0.18 0.18 0.16 0.18 0.17 0.18 0.20 0.26 0.33 0.46 0.64 0.89 1.14 1.39 1.81 2.26 2.58 2.70 2.62 2.51 2.46 2.43 2.45 2.50
0.15 0.15 0.17 0.18 0.20 0.22 0.29 0.24 0.20 0.20 0.18 0.17 0.13 0.14 0.16 0.17 0.20 0.19 0.19 0.20 0.19 0.18 0.19 0.21 0.22 0.24 0.26 0.25 0.31 0.42 0.56 0.80 1.05 1.27 1.64 2.06 2.36 2.61 2.77 2.60 2.47 2.49 2.52 2.55
0.16 0.12 0.12 0.15 0.19 0.19 0.25 0.23 0.18 0.15 0.16 0.16 0.09 0.15 0.23 0.21 0.20 0.19 0.18 0.18 0.19 0.20 0.25 0.28 0.36 0.42 0.41 0.35 0.37 0.47 0.55 0.69 0.85 1.00 1.24 1.48 1.84 2.14 2.50 2.50 2.42 2.55 2.53 2.46
0.15 0.13 0.12 0.12 0.14 0.15 0.19 0.24 0.27 0.25 0.24 0.17 0.10 0.20 0.32 0.27 0.21 0.20 0.20 0.20 0.22 0.24 0.27 0.35 0.48 0.53 0.54 0.48 0.44 0.45 0.55 0.61 0.68 0.78 0.91 1.08 1.35 1.55 1.94 2.26 2.25 2.17 2.22 2.28
0.14 0.14 0.09 0.09 0.11 0.14 0.14 0.21 0.33 0.37 0.33 0.25 0.22 0.37 0.44 0.33 0.24 0.22 0.21 0.23 0.26 0.30 0.36 0.52 0.66 0.69 0.68 0.60 0.53 0.52 0.60 0.64 0.66 0.71 0.74 0.84 1.00 1.13 1.31 1.55 1.67 1.71 1.78 2.00
0.16 0.13 0.10 0.10 0.09 0.10 0.14 0.16 0.20 0.28 0.27 0.28 0.35 0.49 0.44 0.28 0.26 0.28 0.29 0.30 0.40 0.49 0.56 0.68 0.82 0.84 0.76 0.69 0.62 0.60 0.64 0.73 0.73 0.72 0.74 0.84 0.90 0.94 1.06 1.10 1.25 1.45 1.49 1.55
0.19 0.14 0.08 0.08 0.08 0.09 0.11 0.15 0.22 0.33 0.40 0.39 0.39 0.48 0.48 0.38 0.38 0.38 0.42 0.45 0.55 0.67 0.75 0.83 0.96 0.97 0.83 0.71 0.61 0.59 0.62 0.73 0.92 1.04 0.99 0.93 1.01 1.08 1.30 1.34 1.19 1.19 1.37 1.45
0.28 0.23 0.11 0.08 0.10 0.13 0.17 0.25 0.31 0.38 0.41 0.56 0.65 0.66 0.59 0.57 0.58 0.59 0.62 0.65 0.74 0.86 0.87 0.84 0.92 0.98 0.87 0.68 0.61 0.56 0.56 0.68 0.83 0.87 0.93 0.92 0.97 1.07 1.35 1.57 1.51 1.33 1.34 1.39
0.29 0.38 0.23 0.13 0.16 0.20 0.26 0.37 0.52 0.71 0.68 0.64 0.78 0.81 0.65 0.59 0.63 0.64 0.64 0.63 0.68 0.79 0.80 0.81 0.83 0.80 0.70 0.56 0.49 0.47 0.48 0.59 0.71 0.71 0.77 0.84 0.86 0.95 1.07 1.19 1.21 1.15 1.08 1.06
0.38 0.53 0.47 0.33 0.36 0.35 0.43 0.46 0.52 0.65 0.73 0.74 0.83 0.86 0.62 0.54 0.49 0.52 0.55 0.58 0.60 0.60 0.60 0.60 0.60 0.57 0.55 0.53 0.50 0.46 0.47 0.54 0.60 0.64 0.70 0.77 0.80 0.83 0.84 0.85 0.78 0.82 0.85 0.93
0.36 0.46 0.54 0.56 0.59 0.61 0.61 0.51 0.45 0.61 0.80 0.76 0.76 0.74 0.61 0.53 0.49 0.52 0.54 0.54 0.57 0.51 0.44 0.44 0.46 0.47 0.49 0.49 0.49 0.46 0.44 0.51 0.60 0.74 0.82 0.86 0.87 0.87 0.87 0.86 0.81 0.80 0.83 0.89
0.25 0.29 0.28 0.27 0.29 0.41 0.46 0.40 0.38 0.46 0.52 0.67 0.66 0.65 0.52 0.49 0.54 0.57 0.54 0.49 0.45 0.39 0.35 0.35 0.36 0.38 0.38 0.38 0.40 0.40 0.38 0.44 0.52 0.66 0.78 0.83 0.86 0.88 0.84 0.78 0.76 0.80 0.77 0.76
0.17 0.22 0.20 0.17 0.19 0.27 0.34 0.35 0.36 0.36 0.40 0.51 0.57 0.56 0.43 0.40 0.38 0.39 0.36 0.31 0.29 0.29 0.26 0.24 0.25 0.27 0.26 0.25 0.25 0.26 0.33 0.41 0.47 0.55 0.66 0.81 0.87 0.80 0.76 0.70 0.69 0.72 0.70 0.67
0.14 0.25 0.33 0.26 0.22 0.25 0.49 0.51 0.51 0.52 0.46 0.45 0.40 0.32 0.21 0.20 0.23 0.26 0.26 0.26 0.30 0.26 0.20 0.19 0.19 0.20 0.22 0.23 0.25 0.28 0.35 0.44 0.45 0.49 0.61 0.81 0.82 0.70 0.65 0.71 0.76 0.72 0.70 0.70
0.12 0.25 0.34 0.28 0.31 0.59 0.83 0.61 0.58 0.53 0.32 0.18 0.13 0.12 0.12 0.17 0.17 0.15 0.16 0.19 0.22 0.19 0.15 0.13 0.13 0.13 0.14 0.17 0.21 0.24 0.28 0.32 0.36 0.41 0.51 0.66 0.69 0.67 0.70 0.70 0.68 0.63 0.59 0.58
0.12 0.25 0.35 0.31 0.37 0.61 0.64 0.42 0.34 0.33 0.22 0.07 0.06 0.08 0.10 0.12 0.11 0.09 0.09 0.10 0.11 0.11 0.07 0.06 0.06 0.06 0.05 0.06 0.07 0.11 0.13 0.16 0.21 0.28 0.37 0.47 0.50 0.55 0.57 0.56 0.57 0.53 0.49 0.51
0.26 0.32 0.45 0.46 0.58 0.59 0.32 0.17 0.15 0.22 0.27 0.07 0.04 0.04 0.04 0.06 0.09 0.06 0.04 0.05 0.06 0.05 0.04 0.03 0.02 0.01 0.01 0.01 0.02 0.04 0.07 0.10 0.14 0.21 0.27 0.35 0.38 0.42 0.44 0.49 0.52 0.51 0.48 0.46
0.23 0.31 0.40 0.48 0.68 0.55 0.21 0.11 0.11 0.21 0.27 0.08 0.03 0.02 0.02 0.02 0.04 0.02 0.03 0.04 0.04 0.03 0.03 0.01 0.01 0.00 0.00 0.01 0.01 0.02 0.05 0.08 0.09 0.11 0.17 0.23 0.31 0.38 0.46 0.51 0.53 0.55 0.53 0.48
0.25 0.28 0.30 0.41 0.55 0.51 0.20 0.15 0.18 0.18 0.08 0.03 0.02 0.01 0.01 0.01 0.01 0.01 0.02 0.02 0.03 0.03 0.02 0.01 0.01 0.00 0.00 0.01 0.01 0.01 0.02 0.03 0.04 0.07 0.12 0.18 0.26 0.34 0.42 0.52 0.55 0.54 0.54 0.54
0.28 0.30 0.33 0.44 0.58 0.38 0.23 0.21 0.19 0.12 0.06 0.02 0.01 0.01 0.00 0.00 0.00 0.00 0.01 0.02 0.02 0.03 0.02 0.01 0.01 0.01 0.01 0.01 0.01 0.00 0.00 0.00 0.01 0.03 0.07 0.12 0.16 0.20 0.25 0.33 0.41 0.47 0.52 0.53
0.15 0.18 0.23 0.32 0.32 0.20 0.18 0.17 0.12 0.07 0.04 0.02 0.01 0.00 0.00 0.00 0.00 0.00 0.01 0.01 0.02 0.02 0.02 0.01 0.01 0.01 0.01 0.00 0.00 0.00 0.00 0.00 0.01 0.02 0.03 0.06 0.07 0.08 0.11 0.20 0.29 0.35 0.43 0.48
0.11 0.13 0.18 0.25 0.26 0.15 0.11 0.10 0.07 0.04 0.02 0.01 0.01 0.01 0.00 0.00 0.00 0.00 0.00 0.01 0.01 0.01 0.01 0.01 0.01 0.01 0.00 0.00 0.00 0.00 0.01 0.01 0.01 0.01 0.02 0.03 0.05 0.06 0.09 0.15 0.23 0.28 0.35 0.37
0.07 0.12 0.18 0.25 0.23 0.18 0.09 0.07 0.05 0.03 0.02 0.02 0.01 0.00 0.00 0.00 0.00 0.00 0.00 0.00 0.01 0.01 0.01 0.01 0.01 0.01 0.00 0.00 0.00 0.01 0.03 0.02 0.05 0.07 0.03 0.03 0.04 0.07 0.09 0.12 0.14 0.14 0.17 0.17

GEFSCGP_prec_meanprecacc_150.txt.gz
Total_Precipitation_Accumulation
0.23 0.54 0.74 0.66 0.60 0.62 0.59 0.51 0.44 0.38 0.39 0.38 0.34 0.31 0.30 0.27 0.26 0.21 0.19 0.21 0.17 0.15 0.15 0.13 0.13 0.18 0.24 0.33 0.44 0.62 0.97 1.39 1.58 1.48 1.43 1.51 1.63 1.62 1.53 1.51 1.49 1.55 1.55 1.55
0.26 0.36 0.29 0.31 0.38 0.47 0.53 0.54 0.49 0.40 0.29 0.27 0.26 0.24 0.21 0.21 0.23 0.20 0.18 0.19 0.18 0.16 0.14 0.10 0.10 0.14 0.20 0.36 0.51 0.65 0.92 1.36 1.56 1.68 1.78 1.99 2.20 2.11 1.98 1.97 1.92 2.00 2.02 2.19
0.21 0.20 0.17 0.26 0.40 0.47 0.49 0.49 0.47 0.39 0.26 0.21 0.18 0.17 0.16 0.17 0.18 0.16 0.16 0.18 0.17 0.15 0.14 0.13 0.12 0.16 0.20 0.30 0.42 0.57 0.74 1.05 1.40 1.67 1.92 2.22 2.47 2.47 2.36 2.19 2.16 2.23 2.29 2.45
0.21 0.21 0.20 0.23 0.28 0.33 0.43 0.32 0.28 0.25 0.28 0.27 0.19 0.24 0.18 0.19 0.19 0.18 0.18 0.18 0.18 0.18 0.17 0.18 0.17 0.18 0.21 0.26 0.34 0.47 0.64 0.90 1.15 1.40 1.82 2.27 2.59 2.71 2.63 2.52 2.47 2.43 2.45 2.51
0.17 0.17 0.18 0.19 0.20 0.23 0.30 0.25 0.22 0.22 0.22 0.21 0.16 0.20 0.20 0.19 0.22 0.21 0.21 0.21 0.19 0.18 0.20 0.22 0.23 0.25 0.27 0.27 0.33 0.43 0.57 0.80 1.05 1.28 1.64 2.07 2.37 2.62 2.78 2.61 2.48 2.50 2.53 2.56
0.16 0.13 0.12 0.16 0.19 0.19 0.25 0.24 0.20 0.18 0.23 0.23 0.13 0.21 0.30 0.23 0.21 0.20 0.18 0.18 0.19 0.21 0.25 0.29 0.37 0.42 0.42 0.36 0.40 0.48 0.55 0.70 0.86 1.00 1.24 1.49 1.84 2.14 2.50 2.50 2.43 2.55 2.54 2.47
0.15 0.13 0.12 0.12 0.15 0.15 0.19 0.26 0.31 0.32 0.33 0.22 0.12 0.24 0.37 0.29 0.22 0.21 0.21 0.21 0.22 0.24 0.28 0.36 0.50 0.55 0.57 0.50 0.44 0.45 0.56 0.62 0.68 0.79 0.92 1.08 1.35 1.56 1.94 2.26 2.25 2.17 2.23 2.28
0.16 0.16 0.10 0.10 0.11 0.14 0.14 0.26 0.41 0.46 0.41 0.28 0.25 0.42 0.47 0.34 0.27 0.24 0.22 0.23 0.27 0.31 0.37 0.54 0.68 0.70 0.69 0.62 0.53 0.52 0.61 0.64 0.66 0.71 0.74 0.84 1.01 1.14 1.32 1.55 1.67 1.71 1.78 2.00
0.17 0.14 0.10 0.10 0.09 0.11 0.15 0.19 0.22 0.33 0.31 0.31 0.39 0.52 0.46 0.29 0.27 0.28 0.30 0.32 0.42 0.50 0.56 0.70 0.82 0.84 0.76 0.69 0.62 0.60 0.65 0.73 0.73 0.72 0.74 0.84 0.90 0.94 1.06 1.10 1.26 1.45 1.50 1.56
0.20 0.15 0.09 0.08 0.08 0.09 0.11 0.16 0.24 0.37 0.45 0.45 0.43 0.50 0.49 0.38 0.38 0.38 0.42 0.47 0.57 0.68 0.75 0.84 0.97 0.98 0.83 0.71 0.61 0.59 0.63 0.75 0.93 1.04 0.99 0.94 1.01 1.08 1.30 1.34 1.19 1.19 1.37 1.45
0.29 0.24 0.12 0.09 0.10 0.13 0.17 0.25 0.32 0.42 0.44 0.60 0.70 0.68 0.59 0.58 0.58 0.59 0.62 0.67 0.75 0.87 0.87 0.84 0.92 0.99 0.87 0.68 0.61 0.57 0.58 0.69 0.84 0.87 0.93 0.93 0.97 1.07 1.35 1.57 1.52 1.34 1.35 1.39
0.30 0.38 0.24 0.14 0.17 0.20 0.26 0.37 0.52 0.73 0.70 0.65 0.80 0.82 0.65 0.59 0.63 0.64 0.64 0.63 0.68 0.79 0.80 0.81 0.84 0.81 0.71 0.56 0.49 0.47 0.48 0.60 0.71 0.71 0.77 0.84 0.86 0.95 1.07 1.19 1.22 1.15 1.09 1.07
0.38 0.53 0.48 0.35 0.37 0.35 0.43 0.46 0.52 0.65 0.74 0.75 0.84 0.86 0.62 0.54 0.49 0.52 0.55 0.58 0.60 0.60 0.60 0.60 0.60 0.58 0.56 0.54 0.50 0.46 0.47 0.54 0.60 0.64 0.70 0.77 0.80 0.83 0.85 0.85 0.78 0.82 0.86 0.93
0.37 0.47 0.54 0.57 0.60 0.62 0.61 0.51 0.45 0.61 0.82 0.77 0.76 0.74 0.61 0.54 0.49 0.52 0.54 0.54 0.57 0.51 0.44 0.44 0.46 0.47 0.49 0.49 0.49 0.46 0.44 0.51 0.60 0.74 0.82 0.86 0.87 0.87 0.88 0.86 0.81 0.81 0.83 0.89
0.25 0.30 0.28 0.27 0.29 0.41 0.46 0.40 0.38 0.46 0.53 0.67 0.67 0.65 0.53 0.49 0.54 0.57 0.54 0.49 0.45 0.39 0.35 0.35 0.36 0.38 0.38 0.38 0.40 0.40 0.38 0.44 0.52 0.66 0.78 0.83 0.86 0.88 0.85 0.78 0.76 0.80 0.77 0.76
0.17 0.22 0.20 0.17 0.19 0.27 0.34 0.35 0.36 0.36 0.40 0.51 0.57 0.56 0.44 0.40 0.38 0.39 0.36 0.31 0.29 0.29 0.26 0.24 0.25 0.27 0.26 0.25 0.25 0.26 0.33 0.41 0.47 0.55 0.66 0.81 0.87 0.81 0.76 0.70 0.69 0.72 0.70 0.68
0.14 0.25 0.33 0.26 0.22 0.25 0.49 0.51 0.51 0.52 0.46 0.45 0.40 0.33 0.21 0.20 0.23 0.26 0.26 0.26 0.30 0.26 0.20 0.19 0.19 0.20 0.22 0.23 0.25 0.28 0.35 0.44 0.45 0.49 0.61 0.81 0.82 0.70 0.66 0.71 0.76 0.72 0.70 0.71
0.12 0.25 0.34 0.28 0.32 0.60 0.83 0.61 0.58 0.53 0.32 0.18 0.13 0.12 0.12 0.17 0.17 0.15 0.16 0.19 0.22 0.19 0.15 0.13 0.13 0.13 0.14 0.17 0.21 0.24 0.28 0.32 0.36 0.41 0.51 0.66 0.69 0.67 0.70 0.71 0.69 0.64 0.60 0.59
0.13 0.25 0.35 0.31 0.38 0.62 0.65 0.42 0.34 0.33 0.22 0.07 0.06 0.08 0.10 0.12 0.11 0.09 0.09 0.10 0.11 0.11 0.07 0.06 0.06 0.06 0.05 0.06 0.07 0.11 0.13 0.16 0.21 0.28 0.37 0.47 0.50 0.55 0.58 0.56 0.57 0.53 0.50 0.52
0.26 0.32 0.45 0.46 0.58 0.60 0.32 0.17 0.15 0.22 0.27 0.07 0.04 0.04 0.04 0.06 0.09 0.06 0.04 0.05 0.06 0.05 0.04 0.03 0.02 0.01 0.01 0.01 0.02 0.04 0.07 0.10 0.14 0.21 0.27 0.35 0.38 0.42 0.44 0.49 0.52 0.52 0.49 0.47
0.23 0.31 0.40 0.48 0.68 0.55 0.21 0.11 0.11 0.22 0.27 0.08 0.03 0.02 0.02 0.02 0.04 0.02 0.03 0.04 0.04 0.03 0.03 0.01 0.01 0.00 0.00 0.01 0.01 0.02 0.05 0.08 0.09 0.12 0.17 0.23 0.31 0.38 0.46 0.52 0.53 0.55 0.53 0.48
0.25 0.28 0.30 0.41 0.56 0.51 0.20 0.15 0.18 0.18 0.08 0.03 0.02 0.01 0.01 0.01 0.01 0.01 0.02 0.02 0.03 0.03 0.02 0.01 0.01 0.00 0.00 0.01 0.01 0.01 0.02 0.03 0.04 0.07 0.12 0.18 0.26 0.34 0.42 0.52 0.55 0.54 0.55 0.54
0.28 0.30 0.33 0.44 0.58 0.38 0.23 0.21 0.19 0.12 0.06 0.02 0.01 0.01 0.01 0.00 0.00 0.00 0.01 0.02 0.02 0.03 0.02 0.01 0.01 0.01 0.01 0.01 0.01 0.00 0.00 0.00 0.01 0.03 0.07 0.12 0.16 0.20 0.25 0.34 0.42 0.48 0.52 0.54
0.15 0.18 0.23 0.33 0.33 0.20 0.18 0.17 0.12 0.07 0.04 0.02 0.01 0.00 0.00 0.01 0.00 0.00 0.01 0.01 0.02 0.02 0.02 0.01 0.01 0.01 0.01 0.00 0.00 0.00 0.00 0.00 0.01 0.02 0.04 0.06 0.07 0.08 0.11 0.20 0.29 0.36 0.43 0.49
0.11 0.13 0.18 0.25 0.26 0.15 0.11 0.10 0.07 0.04 0.02 0.01 0.01 0.01 0.00 0.00 0.00 0.00 0.00 0.01 0.01 0.01 0.01 0.01 0.01 0.01 0.00 0.00 0.00 0.00 0.01 0.01 0.01 0.01 0.02 0.03 0.05 0.07 0.09 0.15 0.23 0.28 0.36 0.38
0.08 0.12 0.18 0.25 0.23 0.18 0.09 0.07 0.05 0.03 0.02 0.02 0.01 0.00 0.00 0.00 0.00 0.00 0.00 0.01 0.01 0.01 0.01 0.01 0.01 0.01 0.00 0.00 0.00 0.01 0.03 0.02 0.05 0.07 0.03 0.03 0.05 0.07 0.09 0.12 0.14 0.14 0.17 0.18

GEFSCGP_prec_meanprecacc_156.txt.gz
Total_Precipitation_Accumulation
0.24 0.55 0.76 0.67 0.62 0.65 0.61 0.55 0.50 0.42 0.43 0.42 0.39 0.34 0.36 0.33 0.30 0.25 0.23 0.23 0.20 0.18 0.22 0.22 0.17 0.20 0.26 0.37 0.48 0.66 1.01 1.42 1.59 1.49 1.44 1.52 1.63 1.63 1.54 1.51 1.49 1.55 1.55 1.55
0.27 0.37 0.30 0.33 0.40 0.49 0.56 0.58 0.55 0.44 0.33 0.31 0.32 0.28 0.27 0.27 0.27 0.23 0.21 0.22 0.20 0.18 0.17 0.15 0.13 0.15 0.22 0.38 0.52 0.66 0.93 1.38 1.58 1.69 1.81 2.02 2.21 2.12 1.99 1.97 1.93 2.00 2.02 2.19
0.23 0.21 0.17 0.27 0.42 0.50 0.53 0.54 0.52 0.43 0.30 0.26 0.24 0.23 0.21 0.21 0.22 0.20 0.20 0.21 0.18 0.17 0.17 0.16 0.14 0.17 0.22 0.31 0.43 0.58 0.75 1.05 1.40 1.68 1.95 2.24 2.48 2.48 2.37 2.20 2.17 2.23 2.29 2.45
0.23 0.21 0.20 0.24 0.31 0.37 0.48 0.36 0.32 0.31 0.35 0.34 0.26 0.35 0.24 0.23 0.23 0.22 0.21 0.21 0.19 0.19 0.19 0.21 0.19 0.19 0.22 0.28 0.35 0.47 0.65 0.90 1.15 1.40 1.82 2.27 2.59 2.71 2.63 2.52 2.47 2.43 2.45 2.51
0.18 0.18 0.18 0.20 0.22 0.25 0.34 0.29 0.27 0.28 0.31 0.28 0.21 0.26 0.26 0.23 0.25 0.24 0.24 0.23 0.20 0.19 0.22 0.25 0.25 0.26 0.28 0.28 0.34 0.44 0.58 0.81 1.05 1.28 1.64 2.07 2.37 2.62 2.78 2.61 2.48 2.50 2.53 2.56
0.17 0.14 0.13 0.17 0.20 0.20 0.26 0.26 0.23 0.22 0.27 0.31 0.17 0.26 0.35 0.26 0.23 0.23 0.21 0.20 0.21 0.22 0.27 0.32 0.40 0.44 0.45 0.38 0.41 0.50 0.56 0.70 0.86 1.01 1.24 1.49 1.84 2.14 2.50 2.50 2.43 2.55 2.54 2.47
0.17 0.14 0.13 0.13 0.16 0.17 0.20 0.29 0.37 0.37 0.39 0.28 0.14 0.27 0.40 0.30 0.23 0.23 0.22 0.22 0.23 0.27 0.30 0.38 0.52 0.58 0.60 0.52 0.45 0.46 0.56 0.62 0.69 0.79 0.92 1.08 1.35 1.56 1.94 2.26 2.25 2.17 2.23 2.29
0.18 0.18 0.10 0.10 0.13 0.16 0.17 0.30 0.46 0.51 0.46 0.33 0.27 0.44 0.49 0.36 0.28 0.25 0.24 0.25 0.29 0.33 0.39 0.55 0.70 0.72 0.72 0.64 0.54 0.53 0.61 0.64 0.66 0.71 0.74 0.84 1.01 1.14 1.32 1.55 1.67 1.71 1.78 2.01
0.19 0.15 0.11 0.10 0.10 0.12 0.18 0.22 0.25 0.37 0.36 0.38 0.42 0.54 0.49 0.32 0.30 0.31 0.32 0.34 0.44 0.52 0.58 0.71 0.85 0.86 0.77 0.71 0.63 0.61 0.65 0.74 0.74 0.73 0.75 0.84 0.90 0.94 1.06 1.10 1.26 1.45 1.50 1.56
0.22 0.16 0.09 0.09 0.09 0.10 0.12 0.17 0.28 0.42 0.50 0.51 0.46 0.52 0.51 0.41 0.40 0.39 0.44 0.49 0.60 0.69 0.76 0.85 0.99 1.00 0.84 0.72 0.62 0.60 0.64 0.75 0.93 1.05 1.00 0.94 1.01 1.08 1.31 1.34 1.19 1.19 1.37 1.45
0.30 0.25 0.12 0.09 0.11 0.14 0.17 0.26 0.35 0.47 0.50 0.65 0.74 0.70 0.61 0.59 0.59 0.61 0.64 0.69 0.77 0.88 0.88 0.85 0.93 1.00 0.88 0.69 0.62 0.57 0.59 0.70 0.84 0.88 0.94 0.93 0.98 1.07 1.36 1.58 1.52 1.34 1.35 1.39
0.31 0.40 0.25 0.14 0.17 0.20 0.26 0.37 0.55 0.78 0.74 0.68 0.82 0.83 0.66 0.60 0.64 0.65 0.65 0.63 0.68 0.80 0.81 0.82 0.84 0.82 0.72 0.57 0.49 0.47 0.48 0.60 0.71 0.71 0.77 0.84 0.86 0.95 1.08 1.20 1.22 1.16 1.09 1.07
0.39 0.55 0.49 0.36 0.39 0.36 0.44 0.47 0.53 0.69 0.77 0.78 0.86 0.88 0.63 0.55 0.50 0.52 0.56 0.58 0.60 0.61 0.61 0.60 0.61 0.58 0.56 0.54 0.50 0.46 0.47 0.54 0.60 0.64 0.70 0.77 0.80 0.83 0.85 0.85 0.79 0.82 0.86 0.93
0.37 0.48 0.55 0.58 0.60 0.62 0.61 0.51 0.46 0.63 0.85 0.78 0.77 0.75 0.62 0.54 0.50 0.53 0.54 0.55 0.58 0.51 0.44 0.44 0.46 0.47 0.49 0.50 0.49 0.46 0.44 0.51 0.60 0.74 0.82 0.86 0.87 0.87 0.88 0.86 0.81 0.81 0.84 0.90
0.26 0.30 0.29 0.28 0.30 0.41 0.46 0.40 0.39 0.47 0.54 0.68 0.67 0.66 0.54 0.50 0.54 0.57 0.54 0.50 0.47 0.41 0.35 0.36 0.36 0.39 0.38 0.38 0.40 0.40 0.38 0.44 0.52 0.66 0.78 0.83 0.86 0.88 0.85 0.79 0.77 0.81 0.78 0.77
0.17 0.22 0.20 0.18 0.19 0.27 0.34 0.35 0.36 0.36 0.40 0.51 0.58 0.57 0.44 0.40 0.39 0.39 0.37 0.31 0.30 0.31 0.27 0.25 0.25 0.27 0.26 0.25 0.25 0.26 0.33 0.41 0.47 0.55 0.66 0.81 0.88 0.81 0.76 0.70 0.69 0.72 0.71 0.68
0.15 0.26 0.33 0.27 0.23 0.25 0.50 0.52 0.52 0.53 0.46 0.46 0.41 0.33 0.21 0.20 0.23 0.26 0.26 0.27 0.30 0.27 0.21 0.19 0.19 0.21 0.22 0.23 0.25 0.28 0.35 0.44 0.45 0.49 0.61 0.81 0.82 0.71 0.66 0.72 0.76 0.73 0.71 0.71
0.13 0.25 0.35 0.29 0.32 0.61 0.84 0.62 0.59 0.54 0.32 0.18 0.13 0.13 0.12 0.17 0.17 0.15 0.16 0.19 0.22 0.20 0.16 0.14 0.13 0.13 0.14 0.17 0.21 0.24 0.28 0.32 0.36 0.41 0.51 0.66 0.69 0.67 0.70 0.71 0.69 0.64 0.60 0.59
0.14 0.26 0.36 0.32 0.38 0.62 0.65 0.42 0.34 0.34 0.22 0.08 0.07 0.08 0.10 0.12 0.11 0.09 0.09 0.10 0.12 0.11 0.08 0.06 0.06 0.06 0.05 0.06 0.07 0.11 0.13 0.16 0.21 0.28 0.37 0.47 0.50 0.55 0.58 0.57 0.57 0.53 0.50 0.52
0.27 0.33 0.46 0.47 0.59 0.61 0.32 0.17 0.16 0.22 0.27 0.08 0.04 0.04 0.04 0.06 0.09 0.06 0.04 0.05 0.06 0.06 0.04 0.03 0.02 0.01 0.01 0.01 0.02 0.04 0.07 0.10 0.14 0.21 0.27 0.35 0.38 0.42 0.44 0.49 0.52 0.52 0.49 0.47
0.24 0.32 0.41 0.48 0.68 0.56 0.22 0.11 0.12 0.22 0.28 0.09 0.03 0.02 0.02 0.02 0.04 0.02 0.03 0.04 0.04 0.04 0.03 0.01 0.01 0.00 0.00 0.01 0.01 0.02 0.05 0.08 0.09 0.12 0.17 0.23 0.31 0.38 0.46 0.52 0.53 0.56 0.53 0.48
0.26 0.29 0.31 0.41 0.56 0.51 0.20 0.15 0.19 0.18 0.08 0.03 0.02 0.02 0.01 0.01 0.01 0.01 0.02 0.02 0.03 0.03 0.02 0.01 0.01 0.00 0.01 0.01 0.01 0.01 0.02 0.03 0.05 0.07 0.12 0.19 0.26 0.34 0.42 0.52 0.55 0.55 0.55 0.54
0.29 0.31 0.34 0.44 0.58 0.38 0.23 0.21 0.19 0.13 0.06 0.03 0.02 0.01 0.01 0.01 0.00 0.00 0.01 0.02 0.02 0.03 0.02 0.01 0.01 0.01 0.01 0.01 0.01 0.00 0.00 0.00 0.01 0.03 0.07 0.12 0.16 0.20 0.25 0.34 0.42 0.48 0.53 0.54
0.16 0.18 0.23 0.33 0.33 0.20 0.18 0.17 0.12 0.07 0.04 0.02 0.01 0.00 0.01 0.01 0.00 0.00 0.01 0.01 0.02 0.02 0.02 0.01 0.01 0.01 0.01 0.00 0.00 0.00 0.00 0.00 0.01 0.02 0.04 0.06 0.07 0.08 0.11 0.20 0.29 0.36 0.44 0.50
0.12 0.13 0.18 0.25 0.26 0.15 0.11 0.10 0.07 0.05 0.02 0.01 0.01 0.01 0.01 0.01 0.00 0.00 0.00 0.01 0.01 0.01 0.01 0.01 0.01 0.01 0.00 0.00 0.00 0.00 0.01 0.01 0.01 0.01 0.02 0.03 0.05 0.07 0.09 0.15 0.23 0.28 0.36 0.39
0.08 0.12 0.19 0.25 0.23 0.18 0.09 0.07 0.05 0.03 0.02 0.02 0.01 0.01 0.00 0.01 0.00 0.00 0.00 0.01 0.01 0.01 0.01 0.01 0.01 0.01 0.00 0.00 0.00 0.01 0.03 0.02 0.05 0.07 0.03 0.03 0.05 0.07 0.09 0.12 0.14 0.14 0.17 0.18

GEFSCGP_prec_meanprecacc_162.txt.gz
Total_Precipitation_Accumulation
0.25 0.56 0.77 0.68 0.63 0.66 0.62 0.56 0.51 0.44 0.45 0.45 0.41 0.35 0.37 0.35 0.32 0.27 0.24 0.24 0.21 0.19 0.23 0.24 0.18 0.21 0.27 0.38 0.49 0.67 1.01 1.43 1.61 1.51 1.45 1.53 1.64 1.63 1.54 1.52 1.49 1.55 1.55 1.55
0.28 0.37 0.31 0.33 0.41 0.51 0.58 0.60 0.56 0.47 0.35 0.34 0.34 0.30 0.29 0.29 0.29 0.25 0.22 0.23 0.21 0.20 0.19 0.17 0.14 0.16 0.23 0.40 0.54 0.67 0.95 1.40 1.59 1.70 1.81 2.03 2.22 2.12 1.99 1.98 1.93 2.00 2.02 2.19
0.23 0.22 0.19 0.29 0.43 0.53 0.57 0.57 0.53 0.45 0.33 0.28 0.25 0.25 0.22 0.23 0.24 0.22 0.22 0.23 0.20 0.18 0.18 0.17 0.15 0.18 0.23 0.32 0.44 0.59 0.76 1.07 1.41 1.68 1.95 2.24 2.48 2.48 2.37 2.20 2.17 2.23 2.29 2.45
0.24 0.23 0.21 0.27 0.34 0.41 0.51 0.39 0.34 0.32 0.37 0.36 0.29 0.37 0.26 0.25 0.24 0.24 0.24 0.23 0.21 0.21 0.21 0.23 0.20 0.20 0.23 0.29 0.37 0.49 0.67 0.91 1.16 1.41 1.83 2.27 2.59 2.71 2.63 2.52 2.47 2.43 2.45 2.51
0.19 0.19 0.20 0.22 0.25 0.29 0.36 0.31 0.29 0.30 0.34 0.30 0.23 0.29 0.27 0.24 0.26 0.26 0.25 0.24 0.22 0.20 0.23 0.27 0.26 0.28 0.30 0.30 0.35 0.45 0.59 0.81 1.06 1.29 1.65 2.07 2.37 2.62 2.78 2.61 2.48 2.50 2.53 2.56
0.18 0.15 0.15 0.19 0.22 0.23 0.29 0.29 0.26 0.25 0.30 0.33 0.18 0.27 0.36 0.27 0.24 0.24 0.21 0.21 0.22 0.23 0.29 0.33 0.41 0.46 0.46 0.39 0.42 0.50 0.57 0.71 0.87 1.02 1.24 1.49 1.85 2.15 2.50 2.50 2.43 2.55 2.54 2.47
0.18 0.15 0.14 0.15 0.19 0.20 0.24 0.32 0.40 0.40 0.41 0.29 0.15 0.28 0.40 0.31 0.24 0.23 0.23 0.22 0.24 0.27 0.32 0.39 0.53 0.59 0.61 0.52 0.46 0.47 0.57 0.63 0.70 0.80 0.93 1.09 1.36 1.56 1.94 2.26 2.25 2.17 2.23 2.29
0.19 0.19 0.11 0.11 0.14 0.17 0.18 0.31 0.47 0.52 0.47 0.34 0.28 0.44 0.49 0.37 0.28 0.25 0.24 0.26 0.30 0.34 0.40 0.56 0.71 0.73 0.73 0.65 0.55 0.53 0.62 0.66 0.67 0.72 0.75 0.85 1.01 1.14 1.32 1.55 1.67 1.71 1.78 2.01
0.19 0.16 0.12 0.11 0.10 0.12 0.18 0.22 0.26 0.37 0.36 0.38 0.42 0.54 0.49 0.32 0.30 0.31 0.32 0.35 0.45 0.52 0.58 0.72 0.86 0.87 0.79 0.72 0.64 0.61 0.65 0.74 0.74 0.74 0.76 0.85 0.91 0.94 1.06 1.10 1.26 1.45 1.50 1.56
0.22 0.17 0.10 0.10 0.10 0.10 0.12 0.17 0.29 0.42 0.51 0.52 0.47 0.53 0.51 0.41 0.40 0.39 0.44 0.50 0.61 0.70 0.76 0.85 1.00 1.01 0.86 0.74 0.64 0.61 0.64 0.76 0.94 1.05 1.00 0.95 1.02 1.09 1.31 1.34 1.19 1.19 1.38 1.46
0.32 0.27 0.13 0.11 0.12 0.14 0.18 0.26 0.37 0.49 0.51 0.65 0.74 0.71 0.61 0.59 0.59 0.61 0.64 0.70 0.77 0.88 0.89 0.85 0.94 1.01 0.90 0.71 0.63 0.58 0.59 0.70 0.84 0.88 0.94 0.93 0.98 1.08 1.36 1.58 1.52 1.34 1.35 1.40
0.32 0.41 0.25 0.15 0.18 0.21 0.27 0.38 0.56 0.80 0.75 0.69 0.82 0.83 0.67 0.60 0.64 0.65 0.65 0.64 0.69 0.80 0.81 0.82 0.85 0.83 0.73 0.58 0.50 0.47 0.49 0.60 0.71 0.71 0.77 0.85 0.86 0.95 1.08 1.20 1.22 1.16 1.09 1.07
0.40 0.56 0.50 0.37 0.40 0.36 0.44 0.47 0.54 0.69 0.78 0.78 0.86 0.88 0.64 0.55 0.50 0.53 0.56 0.59 0.61 0.62 0.62 0.61 0.61 0.59 0.57 0.54 0.50 0.46 0.47 0.54 0.60 0.64 0.70 0.77 0.80 0.83 0.85 0.86 0.79 0.83 0.86 0.93
0.38 0.48 0.56 0.58 0.61 0.62 0.61 0.52 0.46 0.64 0.85 0.79 0.77 0.75 0.62 0.54 0.50 0.53 0.54 0.55 0.59 0.52 0.45 0.45 0.47 0.47 0.49 0.50 0.49 0.46 0.44 0.51 0.60 0.75 0.82 0.87 0.88 0.88 0.88 0.86 0.82 0.81 0.84 0.90
0.27 0.31 0.30 0.29 0.30 0.41 0.46 0.40 0.39 0.47 0.54 0.68 0.67 0.66 0.54 0.50 0.54 0.57 0.54 0.50 0.47 0.41 0.36 0.36 0.36 0.39 0.38 0.38 0.40 0.40 0.39 0.45 0.52 0.66 0.78 0.83 0.87 0.88 0.85 0.79 0.77 0.81 0.78 0.77
0.18 0.23 0.21 0.19 0.20 0.27 0.34 0.36 0.36 0.36 0.40 0.51 0.58 0.57 0.44 0.40 0.39 0.39 0.37 0.31 0.31 0.31 0.27 0.25 0.25 0.27 0.26 0.25 0.25 0.26 0.33 0.42 0.48 0.55 0.66 0.81 0.88 0.81 0.77 0.70 0.69 0.72 0.71 0.68
0.15 0.26 0.34 0.28 0.24 0.26 0.50 0.52 0.52 0.53 0.46 0.46 0.41 0.33 0.21 0.21 0.23 0.26 0.26 0.27 0.31 0.27 0.22 0.19 0.20 0.21 0.22 0.23 0.26 0.28 0.35 0.44 0.45 0.49 0.61 0.81 0.82 0.71 0.66 0.72 0.76 0.73 0.71 0.71
0.14 0.26 0.35 0.30 0.33 0.62 0.84 0.62 0.59 0.54 0.33 0.19 0.13 0.13 0.12 0.17 0.17 0.16 0.16 0.19 0.23 0.21 0.16 0.14 0.13 0.13 0.14 0.17 0.21 0.24 0.28 0.32 0.36 0.41 0.51 0.66 0.69 0.67 0.70 0.71 0.69 0.65 0.60 0.59
0.15 0.26 0.36 0.33 0.39 0.63 0.65 0.42 0.34 0.34 0.22 0.08 0.07 0.08 0.10 0.13 0.11 0.09 0.09 0.11 0.12 0.12 0.08 0.07 0.06 0.06 0.06 0.06 0.08 0.11 0.13 0.16 0.21 0.28 0.37 0.47 0.50 0.55 0.58 0.57 0.57 0.53 0.50 0.52
0.27 0.33 0.46 0.47 0.59 0.61 0.33 0.17 0.16 0.23 0.27 0.08 0.04 0.04 0.04 0.06 0.09 0.06 0.04 0.05 0.06 0.06 0.05 0.03 0.02 0.01 0.01 0.01 0.02 0.04 0.07 0.10 0.14 0.21 0.27 0.35 0.38 0.42 0.44 0.49 0.52 0.52 0.49 0.47
0.25 0.33 0.41 0.49 0.69 0.56 0.22 0.11 0.12 0.22 0.28 0.09 0.03 0.02 0.02 0.02 0.04 0.02 0.03 0.04 0.04 0.04 0.03 0.02 0.01 0.00 0.00 0.01 0.01 0.02 0.05 0.08 0.09 0.12 0.17 0.23 0.31 0.38 0.46 0.52 0.53 0.56 0.53 0.48
0.28 0.31 0.33 0.42 0.56 0.52 0.21 0.15 0.19 0.18 0.08 0.04 0.02 0.02 0.01 0.01 0.01 0.01 0.02 0.02 0.03 0.03 0.02 0.02 0.01 0.01 0.01 0.01 0.01 0.01 0.02 0.04 0.05 0.07 0.12 0.19 0.27 0.34 0.42 0.52 0.55 0.55 0.55 0.54
0.31 0.33 0.36 0.46 0.59 0.39 0.23 0.21 0.19 0.13 0.06 0.03 0.02 0.01 0.01 0.01 0.00 0.01 0.01 0.02 0.03 0.03 0.02 0.01 0.01 0.01 0.01 0.01 0.01 0.00 0.00 0.00 0.01 0.03 0.07 0.12 0.16 0.20 0.25 0.34 0.42 0.48 0.53 0.54
0.17 0.19 0.24 0.33 0.33 0.20 0.18 0.17 0.12 0.07 0.04 0.02 0.01 0.01 0.01 0.01 0.00 0.00 0.01 0.01 0.02 0.02 0.02 0.01 0.01 0.01 0.01 0.00 0.00 0.00 0.00 0.00 0.01 0.02 0.04 0.06 0.07 0.08 0.11 0.20 0.29 0.36 0.44 0.50
0.13 0.14 0.19 0.26 0.26 0.16 0.11 0.11 0.07 0.05 0.02 0.01 0.01 0.01 0.01 0.01 0.00 0.00 0.00 0.01 0.01 0.01 0.01 0.01 0.01 0.01 0.01 0.00 0.00 0.01 0.01 0.01 0.01 0.02 0.02 0.03 0.05 0.07 0.09 0.15 0.23 0.28 0.36 0.39
0.09 0.13 0.19 0.26 0.24 0.19 0.09 0.07 0.05 0.03 0.02 0.02 0.01 0.01 0.01 0.01 0.01 0.00 0.00 0.01 0.01 0.01 0.01 0.01 0.01 0.01 0.00 0.00 0.00 0.01 0.03 0.02 0.05 0.07 0.03 0.03 0.05 0.07 0.09 0.12 0.14 0.14 0.17 0.18

GEFSCGP_prec_meanprecacc_168.txt.gz
Total_Precipitation_Accumulation
0.26 0.57 0.78 0.69 0.64 0.67 0.63 0.57 0.54 0.47 0.48 0.49 0.44 0.37 0.38 0.35 0.33 0.28 0.25 0.26 0.23 0.20 0.25 0.25 0.19 0.21 0.28 0.39 0.50 0.68 1.03 1.45 1.62 1.51 1.45 1.53 1.64 1.64 1.55 1.52 1.49 1.55 1.55 1.55
0.29 0.38 0.31 0.33 0.41 0.52 0.59 0.61 0.58 0.49 0.38 0.37 0.36 0.31 0.30 0.29 0.30 0.26 0.23 0.24 0.23 0.21 0.20 0.18 0.14 0.16 0.23 0.41 0.55 0.68 0.98 1.42 1.60 1.70 1.82 2.04 2.23 2.13 2.00 1.98 1.93 2.00 2.02 2.19
0.24 0.23 0.19 0.29 0.44 0.54 0.58 0.58 0.54 0.47 0.36 0.31 0.28 0.27 0.24 0.25 0.25 0.23 0.23 0.24 0.22 0.19 0.18 0.18 0.15 0.18 0.23 0.34 0.46 0.61 0.80 1.08 1.42 1.69 1.96 2.24 2.48 2.48 2.37 2.20 2.17 2.23 2.29 2.45
0.25 0.23 0.22 0.28 0.35 0.42 0.53 0.40 0.36 0.34 0.40 0.39 0.30 0.39 0.27 0.26 0.26 0.26 0.26 0.24 0.22 0.21 0.21 0.23 0.20 0.21 0.24 0.30 0.38 0.50 0.68 0.92 1.17 1.42 1.83 2.28 2.60 2.71 2.63 2.52 2.47 2.43 2.45 2.51
0.20 0.20 0.22 0.24 0.26 0.31 0.38 0.32 0.32 0.33 0.37 0.32 0.24 0.30 0.28 0.25 0.27 0.28 0.27 0.25 0.23 0.21 0.24 0.27 0.27 0.28 0.31 0.31 0.36 0.46 0.59 0.82 1.07 1.29 1.65 2.08 2.38 2.62 2.78 2.61 2.48 2.50 2.53 2.56
0.19 0.16 0.17 0.21 0.23 0.24 0.31 0.30 0.29 0.28 0.33 0.35 0.19 0.28 0.37 0.27 0.24 0.25 0.22 0.21 0.22 0.24 0.29 0.34 0.42 0.46 0.47 0.40 0.42 0.50 0.58 0.73 0.88 1.02 1.25 1.50 1.85 2.15 2.51 2.50 2.43 2.55 2.54 2.47
0.19 0.16 0.16 0.17 0.22 0.23 0.27 0.36 0.44 0.43 0.44 0.31 0.16 0.28 0.41 0.31 0.24 0.24 0.23 0.23 0.24 0.27 0.32 0.40 0.54 0.59 0.61 0.53 0.46 0.47 0.57 0.64 0.70 0.80 0.93 1.10 1.37 1.56 1.95 2.26 2.25 2.17 2.23 2.29
0.20 0.21 0.14 0.14 0.17 0.21 0.22 0.35 0.51 0.54 0.49 0.35 0.28 0.45 0.50 0.37 0.28 0.26 0.24 0.26 0.30 0.34 0.40 0.57 0.72 0.73 0.74 0.65 0.55 0.53 0.62 0.66 0.68 0.72 0.75 0.86 1.02 1.15 1.32 1.55 1.67 1.71 1.78 2.01
0.20 0.17 0.13 0.13 0.12 0.14 0.19 0.23 0.26 0.38 0.37 0.39 0.43 0.54 0.49 0.32 0.30 0.31 0.32 0.35 0.45 0.53 0.59 0.72 0.86 0.87 0.79 0.72 0.64 0.61 0.65 0.74 0.75 0.74 0.76 0.87 0.92 0.95 1.07 1.11 1.26 1.45 1.50 1.56
0.23 0.18 0.11 0.12 0.12 0.11 0.13 0.18 0.29 0.43 0.52 0.52 0.47 0.53 0.52 0.41 0.41 0.39 0.44 0.50 0.61 0.70 0.76 0.85 1.00 1.01 0.86 0.74 0.64 0.61 0.64 0.76 0.94 1.05 1.01 0.96 1.03 1.10 1.32 1.35 1.20 1.19 1.38 1.46
0.33 0.27 0.14 0.12 0.13 0.15 0.18 0.27 0.37 0.49 0.51 0.66 0.74 0.71 0.61 0.59 0.59 0.61 0.64 0.70 0.77 0.89 0.89 0.86 0.94 1.02 0.91 0.72 0.63 0.58 0.59 0.70 0.84 0.88 0.94 0.93 0.98 1.08 1.36 1.58 1.52 1.34 1.36 1.40
0.33 0.42 0.26 0.16 0.19 0.21 0.27 0.38 0.56 0.80 0.75 0.69 0.83 0.84 0.67 0.60 0.64 0.66 0.65 0.64 0.69 0.80 0.82 0.83 0.86 0.83 0.74 0.59 0.50 0.48 0.49 0.60 0.71 0.71 0.77 0.85 0.86 0.96 1.08 1.20 1.22 1.16 1.09 1.07
0.42 0.57 0.51 0.38 0.41 0.37 0.45 0.48 0.54 0.69 0.78 0.79 0.87 0.88 0.64 0.55 0.50 0.53 0.56 0.59 0.61 0.62 0.62 0.62 0.62 0.59 0.58 0.55 0.51 0.46 0.47 0.54 0.61 0.64 0.70 0.77 0.80 0.83 0.85 0.86 0.79 0.83 0.86 0.93
0.40 0.49 0.57 0.59 0.62 0.63 0.61 0.52 0.47 0.64 0.85 0.79 0.78 0.75 0.62 0.55 0.51 0.53 0.54 0.55 0.59 0.53 0.46 0.46 0.47 0.48 0.50 0.50 0.50 0.46 0.44 0.51 0.60 0.75 0.82 0.87 0.88 0.88 0.88 0.86 0.82 0.81 0.84 0.90
0.27 0.31 0.30 0.29 0.30 0.41 0.46 0.40 0.39 0.47 0.54 0.69 0.68 0.66 0.54 0.50 0.55 0.58 0.54 0.50 0.47 0.42 0.36 0.36 0.36 0.39 0.38 0.39 0.40 0.40 0.39 0.45 0.52 0.66 0.78 0.83 0.87 0.88 0.85 0.79 0.77 0.81 0.78 0.77
0.18 0.23 0.21 0.19 0.20 0.28 0.35 0.36 0.37 0.37 0.41 0.51 0.58 0.57 0.44 0.40 0.39 0.40 0.37 0.32 0.31 0.32 0.28 0.25 0.25 0.27 0.27 0.25 0.25 0.26 0.33 0.42 0.48 0.56 0.66 0.81 0.88 0.81 0.77 0.70 0.69 0.73 0.71 0.68
0.16 0.26 0.35 0.29 0.24 0.26 0.51 0.52 0.52 0.53 0.47 0.46 0.41 0.33 0.21 0.21 0.23 0.27 0.26 0.27 0.31 0.28 0.22 0.20 0.20 0.21 0.22 0.23 0.26 0.29 0.35 0.44 0.45 0.49 0.61 0.81 0.82 0.71 0.66 0.72 0.76 0.73 0.71 0.72
0.15 0.27 0.37 0.31 0.34 0.62 0.84 0.62 0.59 0.54 0.33 0.19 0.14 0.13 0.12 0.17 0.17 0.16 0.16 0.19 0.23 0.21 0.17 0.14 0.14 0.13 0.14 0.17 0.22 0.24 0.28 0.32 0.36 0.41 0.51 0.66 0.69 0.67 0.70 0.71 0.69 0.65 0.60 0.59
0.17 0.28 0.38 0.34 0.39 0.63 0.65 0.42 0.34 0.34 0.23 0.08 0.07 0.08 0.10 0.13 0.12 0.09 0.09 0.11 0.12 0.12 0.08 0.07 0.07 0.06 0.06 0.06 0.08 0.11 0.13 0.17 0.21 0.28 0.37 0.47 0.51 0.56 0.58 0.57 0.57 0.53 0.50 0.52
0.29 0.35 0.48 0.48 0.60 0.62 0.33 0.17 0.16 0.23 0.27 0.08 0.04 0.04 0.04 0.06 0.10 0.07 0.04 0.05 0.06 0.06 0.05 0.03 0.02 0.02 0.01 0.01 0.02 0.04 0.07 0.10 0.14 0.21 0.28 0.35 0.38 0.42 0.44 0.49 0.52 0.52 0.49 0.47
0.27 0.34 0.42 0.50 0.69 0.56 0.22 0.11 0.12 0.22 0.28 0.09 0.03 0.02 0.02 0.02 0.04 0.03 0.03 0.04 0.04 0.04 0.03 0.02 0.01 0.01 0.01 0.01 0.01 0.02 0.06 0.08 0.09 0.12 0.17 0.23 0.31 0.38 0.46 0.52 0.53 0.56 0.53 0.49
0.31 0.32 0.34 0.43 0.57 0.52 0.21 0.15 0.19 0.19 0.08 0.04 0.02 0.02 0.01 0.01 0.01 0.01 0.02 0.02 0.03 0.03 0.02 0.02 0.01 0.01 0.01 0.01 0.01 0.01 0.02 0.04 0.05 0.07 0.12 0.19 0.27 0.34 0.42 0.52 0.55 0.55 0.55 0.54
0.32 0.34 0.37 0.46 0.59 0.39 0.23 0.21 0.19 0.13 0.06 0.03 0.02 0.01 0.01 0.01 0.00 0.01 0.01 0.02 0.03 0.03 0.02 0.01 0.01 0.01 0.01 0.01 0.01 0.00 0.00 0.00 0.01 0.03 0.07 0.12 0.16 0.20 0.25 0.34 0.42 0.48 0.53 0.54
0.18 0.20 0.25 0.34 0.33 0.20 0.18 0.17 0.12 0.07 0.04 0.02 0.01 0.01 0.01 0.01 0.00 0.00 0.01 0.01 0.02 0.02 0.02 0.02 0.01 0.01 0.01 0.01 0.01 0.01 0.00 0.00 0.01 0.02 0.04 0.06 0.07 0.08 0.11 0.20 0.29 0.36 0.44 0.50
0.14 0.15 0.20 0.26 0.27 0.16 0.11 0.11 0.07 0.05 0.02 0.01 0.01 0.01 0.01 0.01 0.01 0.00 0.00 0.01 0.01 0.01 0.01 0.01 0.01 0.01 0.01 0.01 0.01 0.01 0.01 0.01 0.01 0.02 0.02 0.03 0.05 0.07 0.09 0.15 0.23 0.28 0.36 0.39
0.09 0.13 0.20 0.27 0.24 0.19 0.09 0.07 0.05 0.03 0.02 0.02 0.01 0.01 0.01 0.01 0.01 0.01 0.01 0.01 0.01 0.01 0.01 0.01 0.01 0.01 0.01 0.01 0.01 0.02 0.03 0.02 0.05 0.07 0.03 0.03 0.05 0.07 0.09 0.12 0.14 0.14 0.17 0.18